Powrót do katalogu

STARLINK-32834

AktywnyŁącznośćVLEO
NORAD 62875·PAYLOAD·🇺🇸 United States

Wystrzelony Feb 1, 2025 z Vandenberg Space Force Base

Loading…

Następne Przeloty (najbliższe 24 godziny)

TLE

ŚwieżeSource: CelesTrak SupGP

Epoka: Sep 14, 2026, 22:23 UTC

1 62875C 25022X   26257.93312500  .00005638  00000+0  16664-3 0  2578
2 62875  53.1586 327.4483 0001174  89.0460  89.4776 15.34375274    12

Śledź STARLINK-32834 w czasie rzeczywistym z AllMySat

Download on the App Store